Theta_e
284 279 277 281 281 283 283 282 282 285 288 286 285 286 289 292 292 293 294 291 293 295 298 298 299 301 304 306 307 313 319 323 324 318 310 307 306 304 304 304 305 305 305 304
281 277 282 284 284 282 282 280 280 284 287 285 285 286 290 290 290 293 294 290 292 294 295 298 300 301 301 304 305 309 315 318 320 316 314 310 307 304 304 304 304 305 304 304
278 281 286 284 283 281 281 280 280 280 284 286 284 283 286 290 289 290 292 292 293 294 295 296 296 299 298 299 300 307 312 314 317 316 312 304 301 300 299 301 303 304 304 304
279 285 282 281 282 284 280 286 285 284 282 278 283 276 284 288 290 291 291 292 294 294 295 296 296 294 295 297 300 305 310 311 314 312 307 304 302 300 301 302 303 303 304 303
274 274 275 278 281 283 282 285 283 282 279 280 281 278 282 287 285 289 292 291 289 288 289 288 289 291 291 292 298 303 307 309 310 308 306 304 302 303 302 302 302 302 302 303
274 278 279 279 277 278 282 284 281 281 278 274 279 278 279 283 285 288 292 295 287 287 287 288 289 290 290 291 294 297 302 306 307 306 304 303 301 301 300 300 300 301 301 301
271 272 277 278 272 277 276 273 273 270 270 271 279 275 279 286 287 288 288 284 284 286 286 286 287 287 288 289 291 297 297 299 304 303 302 301 300 300 299 299 299 299 299 299
264 263 272 276 274 272 273 273 272 268 271 272 277 273 278 288 289 290 285 285 285 285 286 285 286 286 287 288 289 290 296 296 298 300 300 299 299 299 298 299 299 299 299 300
265 265 273 275 277 276 271 270 275 271 273 271 277 280 285 285 284 284 283 283 283 283 284 284 284 285 286 286 287 288 289 295 296 297 298 297 296 297 296 297 298 298 299 299
270 263 272 274 277 277 275 276 270 274 268 268 275 276 276 280 280 281 280 280 281 282 281 282 282 284 285 286 286 287 288 289 291 296 297 297 296 296 295 296 296 297 297 298
269 265 267 272 269 268 270 268 270 270 273 269 269 271 281 279 280 279 279 280 280 279 279 279 279 281 283 283 283 284 285 287 289 291 295 295 295 295 294 296 296 296 296 297
270 266 265 266 271 275 272 269 270 264 263 266 270 273 282 282 281 280 278 278 278 278 277 276 276 277 279 280 281 281 282 284 286 289 292 294 295 295 294 294 295 296 296 297
270 268 258 262 265 271 268 270 271 270 270 266 265 269 281 283 280 279 276 276 276 276 275 275 274 274 275 277 278 278 279 281 283 285 286 288 289 291 293 294 294 295 296 296
274 257 258 259 262 267 264 267 270 268 264 267 268 270 275 278 275 275 275 275 274 274 274 273 273 273 273 275 275 276 276 278 280 281 282 283 285 286 289 292 294 294 295 295
269 257 258 265 267 268 267 266 268 267 269 266 269 271 273 273 273 274 274 275 274 273 273 273 272 272 272 273 274 274 274 276 277 278 279 280 283 285 286 287 289 293 293 294
267 260 264 258 268 268 265 267 270 272 272 272 273 271 275 276 276 274 274 273 273 272 272 273 272 272 272 272 273 273 273 273 275 275 276 278 281 282 283 284 285 288 290 291
264 258 258 255 267 265 254 268 268 270 273 271 267 271 275 273 273 272 273 273 273 273 273 273 273 272 272 271 273 272 272 273 273 273 274 275 277 280 281 283 284 284 285 286
262 257 256 254 255 248 262 272 272 270 272 273 273 273 274 274 274 274 274 273 273 273 272 273 273 272 272 272 273 273 272 271 271 271 272 273 275 277 279 281 282 284 284 284
269 260 255 255 247 261 266 269 264 263 265 274 272 273 274 275 275 272 275 275 273 273 273 273 274 273 272 271 272 273 271 270 269 269 271 272 273 275 275 277 279 283 284 284
272 267 260 248 250 251 260 269 272 270 259 272 272 271 272 273 268 270 274 275 274 274 274 272 273 274 272 271 271 271 269 268 267 268 269 271 272 274 274 275 277 280 283 284
253 251 256 255 251 257 265 271 270 256 260 271 273 273 271 270 268 271 276 275 275 274 273 273 272 271 270 270 270 269 268 266 266 267 268 269 271 272 274 274 276 277 279 283
258 252 253 249 247 252 269 271 265 266 267 272 272 272 271 271 272 273 273 273 273 272 271 271 270 270 270 269 268 267 266 266 265 266 266 267 269 271 272 272 274 276 276 277
260 264 259 261 260 265 270 272 274 271 273 271 271 273 271 270 270 270 270 271 270 270 270 270 269 269 266 266 268 266 265 264 264 263 263 265 267 268 269 270 271 272 274 274
266 266 265 264 264 270 272 273 272 274 274 274 273 271 270 269 270 270 270 270 270 270 269 269 268 267 266 267 267 266 265 264 262 262 262 263 264 265 267 268 270 271 272 273
269 266 264 267 270 272 273 270 274 274 274 273 272 271 270 269 269 270 269 268 268 268 268 267 266 266 265 266 265 263 264 263 261 261 262 262 263 263 264 266 267 270 272 274
271 269 266 266 271 269 272 273 273 273 272 272 270 269 270 269 268 267 266 267 266 266 265 264 264 264 264 264 264 263 262 261 259 259 261 261 261 262 262 263 264 269 272 274
Wind_Speed
4 4 19 21 9 21 20 21 23 22 6 12 15 25 27 16 17 24 20 13 17 18 13 11 11 11 13 15 17 18 20 20 16 14 13 12 13 10 10 10 15 16 13 14
5 22 20 18 16 17 23 28 30 30 19 11 16 26 30 16 12 20 20 15 16 17 19 18 21 17 13 15 16 16 20 21 19 14 13 10 12 9 9 8 10 14 14 15
13 21 23 22 23 22 27 23 26 24 22 18 21 22 27 18 11 15 16 15 15 22 26 21 20 17 13 12 11 17 20 21 21 18 11 5 5 4 5 9 9 12 16 15
16 13 21 22 23 25 30 24 28 27 20 19 8 23 26 23 22 15 17 19 24 19 22 22 21 14 12 13 12 16 18 21 20 19 16 18 17 14 11 13 12 13 17 17
14 24 24 20 17 29 24 14 15 20 25 24 25 16 23 17 15 19 20 16 8 7 8 10 10 8 7 7 10 16 18 20 19 20 20 17 16 12 9 11 14 14 12 14
19 14 8 11 33 19 21 22 18 20 13 19 28 18 17 22 18 16 17 19 6 9 9 11 9 10 13 11 8 5 12 18 20 20 20 21 20 16 11 13 12 11 11 11
13 22 19 18 38 26 30 25 7 6 7 11 11 11 17 20 10 15 11 8 9 10 13 14 16 16 16 18 17 7 1 7 14 17 17 18 17 17 16 15 13 14 11 11
14 20 24 28 25 17 33 15 11 12 8 4 6 7 7 23 13 16 14 9 11 14 13 15 16 15 16 17 18 17 7 3 7 12 14 11 12 10 9 13 12 11 12 12
12 16 33 24 22 13 14 18 26 10 4 4 3 6 10 16 17 18 15 14 14 15 15 17 17 16 16 17 17 16 16 8 4 6 7 7 7 10 10 13 12 11 11 10
8 25 12 26 16 3 9 19 11 7 3 6 4 4 4 15 14 15 18 17 16 16 17 17 17 18 17 16 15 17 17 14 12 3 8 8 8 7 8 11 12 12 11 11
12 3 21 11 11 20 7 13 10 8 10 7 2 6 12 15 13 14 14 16 17 17 17 17 16 17 17 17 18 17 17 17 16 12 3 7 7 7 8 11 11 11 11 12
4 6 8 19 20 9 3 10 11 7 11 9 7 3 14 15 14 14 14 15 17 17 16 16 16 16 17 17 17 17 18 17 17 15 11 5 2 5 6 7 10 11 12 13
5 4 10 12 7 10 8 15 17 14 9 11 7 8 20 11 14 15 15 15 15 16 17 16 17 17 17 17 18 17 17 17 16 16 15 14 13 10 3 7 9 10 11 12
9 1 6 8 16 16 17 20 18 11 7 11 15 23 18 16 16 17 16 15 14 15 16 15 15 16 16 16 17 17 17 17 17 15 15 15 14 13 11 7 4 8 10 11
3 5 5 12 17 20 20 21 17 17 19 12 24 21 13 10 10 11 12 13 15 16 16 16 16 15 16 17 17 16 16 17 16 16 16 16 14 13 13 12 10 2 7 9
2 6 9 7 17 18 17 15 17 11 8 7 10 7 14 5 9 13 13 12 14 15 16 16 17 16 17 17 16 17 17 17 15 16 16 15 16 15 14 13 12 11 6 1
4 3 2 7 16 17 8 6 10 15 6 9 7 8 15 10 11 12 12 13 13 13 13 14 15 15 16 15 15 15 15 15 15 15 16 17 16 15 15 14 13 12 11 8
6 2 2 6 6 4 10 2 6 8 4 7 6 7 9 4 5 7 10 9 10 11 11 12 11 11 12 13 13 11 13 15 15 16 16 16 16 16 15 13 12 11 10 8
10 4 3 1 4 11 11 4 2 3 5 3 5 5 6 3 3 3 5 5 5 5 6 7 7 6 8 11 12 11 13 13 14 16 16 16 16 15 15 15 14 11 8 7
5 2 5 4 2 8 9 5 6 1 4 3 4 4 3 6 2 3 2 3 3 4 4 5 7 7 9 11 11 10 12 13 15 15 14 14 14 14 14 14 13 12 10 5
3 5 7 7 5 12 10 7 1 8 9 3 2 5 3 3 5 3 3 2 2 4 5 4 5 7 9 10 10 10 11 12 13 12 12 13 13 13 13 13 11 11 11 10
6 3 5 2 2 10 7 1 5 9 5 4 4 4 5 4 4 4 4 2 2 3 4 6 7 8 8 7 8 8 8 9 11 12 12 12 12 11 10 12 11 11 10 9
6 10 6 11 10 8 7 8 10 6 10 5 5 6 5 5 5 4 3 2 3 2 2 3 4 5 4 3 5 8 9 9 11 10 9 9 10 9 10 10 10 9 9 8
6 5 9 3 7 19 17 14 9 8 12 7 6 6 4 6 5 6 4 3 2 0 1 1 4 5 5 3 4 3 6 7 10 12 13 11 9 10 8 7 6 6 6 6
10 5 9 17 18 18 16 10 15 11 7 6 6 6 7 6 8 6 5 4 4 4 3 3 5 7 7 6 2 2 5 7 9 9 10 10 9 11 10 7 7 7 6 7
14 22 12 18 16 10 14 9 6 9 13 11 9 8 7 7 7 4 4 3 3 4 4 6 7 8 8 6 7 7 4 7 9 10 8 7 8 8 9 10 9 12 15 14
Wind_Direction
279 252 236 250 239 254 265 269 271 261 259 235 234 251 261 249 242 256 256 254 257 260 253 233 234 235 230 211 201 188 185 182 176 178 175 179 181 175 177 181 180 181 178 174
343 254 274 284 277 272 254 255 258 270 270 265 272 270 275 254 233 234 243 231 244 255 257 251 246 235 219 214 200 186 187 181 184 180 183 181 176 184 182 183 184 180 179 178
273 281 305 286 282 276 264 254 259 261 279 257 269 272 273 266 257 242 250 252 244 246 259 257 246 234 214 209 193 191 185 184 186 182 169 137 123 114 152 181 179 186 185 183
272 320 317 313 295 272 266 275 288 288 285 274 210 269 263 270 265 255 249 255 255 260 257 252 245 236 214 211 195 195 187 184 184 173 173 176 181 183 193 185 181 186 188 186
319 313 310 294 326 313 272 261 273 278 276 278 261 261 274 266 269 259 253 258 295 332 6 25 39 21 1 322 221 198 186 184 180 177 179 182 186 192 183 185 184 183 184 185
332 305 329 355 343 316 307 274 291 282 255 242 250 237 249 260 260 258 274 270 45 31 46 42 21 20 20 4 359 283 177 183 179 177 182 186 186 183 179 180 181 185 181 179
342 339 340 24 337 327 346 334 257 236 207 248 224 247 242 273 244 255 288 51 27 32 37 32 27 17 15 11 360 343 177 153 172 177 180 185 187 184 181 178 183 180 181 187
346 342 355 329 322 308 303 274 276 257 223 244 189 238 239 245 271 258 79 64 40 36 29 32 25 20 16 14 9 3 348 95 142 172 182 182 181 181 178 181 183 186 191 195
318 317 310 307 332 334 329 335 292 274 260 280 191 293 301 27 52 48 52 44 40 33 28 29 23 19 14 15 10 4 10 354 142 170 167 166 160 175 177 181 184 185 187 189
306 310 299 321 313 11 323 346 345 323 276 214 202 197 268 22 36 38 36 35 33 30 29 25 20 15 14 14 10 9 11 11 5 235 170 168 166 167 163 174 179 185 188 183
307 233 309 332 338 328 20 11 11 294 326 333 337 87 34 39 40 46 42 39 33 28 24 21 19 14 10 12 12 9 8 6 2 357 298 165 170 171 164 182 184 183 178 179
261 276 300 309 307 103 55 15 14 341 329 307 268 84 63 31 29 47 46 40 36 29 24 21 18 13 12 12 11 9 6 7 3 0 7 23 160 177 168 175 184 179 182 184
317 340 325 327 342 319 334 341 334 313 279 298 323 286 20 25 32 38 41 35 30 26 23 18 15 13 11 11 10 9 7 5 4 6 14 20 20 4 238 185 186 180 177 181
10 303 175 288 286 294 301 309 301 294 282 296 275 293 5 351 31 25 24 29 26 25 20 18 17 13 9 8 12 8 6 6 4 8 14 16 11 5 3 349 199 166 173 174
157 248 164 273 281 291 291 290 300 283 258 258 280 302 354 21 23 24 22 18 20 22 20 17 15 12 10 8 10 11 10 6 5 11 13 11 5 6 5 9 4 337 164 174
313 261 311 285 299 296 301 311 336 319 342 337 309 3 359 12 21 24 21 18 23 18 23 20 16 16 14 8 8 6 8 4 5 13 13 6 7 9 8 5 4 13 19 265
244 190 349 265 306 323 350 356 1 342 42 329 0 354 346 10 28 23 18 18 14 13 10 14 16 15 13 8 5 12 4 1 7 11 11 7 3 6 6 7 11 11 10 5
224 147 127 260 5 353 236 127 250 291 348 350 324 345 345 352 70 37 27 21 15 9 9 7 3 14 10 3 2 11 10 9 7 10 10 5 1 360 360 3 4 8 3 4
185 138 296 189 179 280 285 243 262 324 318 279 291 321 329 331 195 19 26 25 20 11 6 0 351 7 11 11 1 11 15 14 13 9 3 359 356 354 358 357 353 347 355 358
228 118 152 47 162 265 233 227 235 142 272 242 223 257 295 324 271 257 331 343 2 2 0 3 348 354 15 10 1 11 16 14 14 1 353 351 351 353 356 349 342 343 346 339
317 333 212 247 237 274 238 227 138 78 246 228 216 245 216 226 212 251 304 280 340 338 337 360 355 5 11 7 4 9 10 14 358 348 346 352 351 353 351 343 343 347 350 356
189 166 223 64 148 274 198 142 161 216 258 201 219 223 246 234 260 212 201 222 323 326 348 7 359 353 4 7 4 360 15 358 351 346 345 345 343 351 342 343 345 351 357 355
253 195 195 184 218 222 224 267 276 189 241 224 193 209 222 261 263 286 264 207 207 195 2 27 351 332 335 353 9 346 349 354 347 343 337 329 327 340 334 342 344 350 353 354
265 197 239 334 239 251 260 264 263 217 219 203 190 197 208 246 268 279 286 298 313 307 36 68 338 329 314 351 343 345 351 348 339 331 327 326 327 334 337 334 340 332 336 339
226 180 243 260 272 271 260 237 257 237 210 180 176 192 213 229 256 269 283 294 307 319 344 15 330 315 313 313 303 14 354 341 324 319 317 318 326 326 327 324 321 316 309 311
237 252 247 261 263 255 273 258 214 192 202 197 185 191 201 212 247 272 286 304 324 321 333 315 307 302 300 309 311 315 332 317 311 308 310 315 314 317 317 318 314 306 304 310